Weather in Burmakino

Russia / Kirov Oblast     58°19′24″N   49°47′57″E
temp.,
°C
wind,
m/s
gust,
m/s
humid.,
%
clouds,
%
prec.,
mm/h
press.,
hPa
HPBL,
m
12 may, wed
wed1200:00+10ene227557 0.0 103022
03:00+9ne2379100 0.0 103043
06:00+13e236893 0.0 1030133
09:00+19e23539 0.0 1029529
12:00+23ese11420 0.0 10281074
15:00+24se11400 0.0 10281479
18:00+22ese11540 0.0 102711
21:00+17e226776 0.0 102722
13 may, thu
thu1300:00+16ese227390 0.0 102725
03:00+16ese23739 0.0 102750
06:00+17se24685 0.0 1027150
09:00+23se23485 0.0 1027628
12:00+25sse453696 0.0 10252390
15:00+25s46315 0.0 10242367
18:00+22ssw3749100 0.0 1023304
21:00+17sse3865100 0.0 1023129
14 may, fri
fri1400:00+17se396662 0.0 1023205
03:00+16sse41368100 0.1 1022346
06:00+17sse411729 0.2 1021371
09:00+21ssw58530 0.2 1021664
12:00+25ssw58457 0.0 10201778
15:00+25ssw5844100 0.0 10202487
18:00+22ssw4957100 0.0 1019549
21:00+17ssw368024 0.3 101994
15 may, sat
sat1500:00+16sw238995 0.9 101858
03:00+15s119359 2.1 101811
06:00+18s118250 0.1 1018140
09:00+22s3463100 0.1 1017678
12:00+26ssw474565 0.0 10171504
15:00+27ssw57445 0.0 10161779
18:00+24ssw49535 0.0 1016531
21:00+19s414650 0.0 1016349
16 may, sun
sun1600:00+17ssw3136882 0.0 1016329
03:00+15ssw31172100 0.0 1016226
06:00+18ssw41263100 0.0 1016345
09:00+24ssw51144100 0.0 1015676
12:00+27ssw7133636 0.0 10141895
15:00+28ssw5123880 0.0 10142666
18:00+24ssw5114772 0.0 1013852
21:00+18wnw258497 1.3 1014116